{"data":{"norad_id":55610,"epoch":"2026-09-19T22:28:12.680832Z","epoch_age_seconds":149092,"freshness":"FRESH","line1":"1 55610U 23020AT  26262.93625788  .00000166  00000+0  15562-4 0  9995","line2":"2 55610  43.0060 337.4930 0001845 288.7746  71.2906 15.27577376198745","mean_motion":15.27577376,"eccentricity":0.0001845,"inclination_deg":43.006,"raan_deg":337.493,"arg_perigee_deg":288.7746,"mean_anomaly_deg":71.2906,"bstar":1.5562e-5,"rev_number":19874,"period_min":94.266910640604,"perigee_km":481.7910629665,"apogee_km":484.32284353525,"semimajor_km":6861.1939532509,"source":"CELESTRAK","updated_at":"2026-09-21T09:00:33.274237Z"}}